Location: Recife
(8.0585°S, 34.8848°W)
Time: 11:29:38
(UTC-03:00)

Vanguard 2 - Pass Details

Date: 20 April 2026
Orbit: 554 x 2894 km, 32.9° (Epoch: 7 May)

Event Time Altitude Azimuth Distance (km) Brightness Sun altitude
Rises 22:19:20 0° 252° (WSW) 5,795 12.2 -75.0°
Enters shadow 22:23:14 - 242° (WSW) 5,172 11.8 -75.9°
Reaches altitude 10° 22:23:47 10° 240° (WSW) 5,095 - -76.0°
Maximum altitude 22:36:35 29° 186° (S) 4,271 - -79.0°
Drops below altitude 10° 22:50:45 10° 133° (SE) 5,627 - -82.2°
Sets 22:56:03 0° 121° (ESE) 6,471 - -83.3°
